Location: Unspecified
(0.0000°N, 0.0000°E)
Time: 07:58:59
(UTC+00:00)

ISS - Pass Details

Date: 17 February 2018
Orbit: 402 x 406 km, 51.6° (Epoch: 18 June)

Event Time Altitude Azimuth Distance (km) Brightness Sun altitude
Rises 19:46:29 0° 296° (WNW) 2,307 0.8 -22.6°
Reaches altitude 10° 19:49:09 10° 273° (W) 1,454 0.0 -23.3°
Maximum altitude 19:51:11 15° 234° (SW) 1,174 -0.7 -23.8°
Drops below altitude 10° 19:53:13 10° 195° (SSW) 1,462 -0.7 -24.3°
Enters shadow 19:54:35 - 180° (S) 1,861 -0.3 -24.6°
